This is the latest recevied weather packets stored in our database for station/object IW2NIA-3. If no packets are shown the sender has not sent any weather packets the latest 10 day(s).
| Time | Temp. | Humidity | Pressure | Rain* | Wind** | Luminosity | Snow |
|---|---|---|---|---|---|---|---|
| 1787798923 | 22.22° C | 84% | 1016.5 hPa | 0 mm | - | - | - |
| 1787798023 | 22.78° C | 83% | 1016.5 hPa | 0 mm | - | - | - |
| 1787797119 | 22.78° C | 82% | 1016.4 hPa | 0 mm | - | - | - |
| 1787796217 | 22.78° C | 82% | 1016.2 hPa | 0 mm | - | - | - |
| 1787795308 | 22.78° C | 82% | 1016.2 hPa | 0 mm | - | - | - |
| 1787794424 | 22.78° C | 83% | 1016.1 hPa | 0 mm | - | - | - |
| 1787793518 | 22.78° C | 83% | 1016.2 hPa | 0 mm | - | - | - |
| 1787792609 | 22.22° C | 84% | 1016.3 hPa | 0 mm | - | - | - |
| 1787787216 | 22.22° C | 84% | 1016.7 hPa | 0 mm | - | - | - |
| 1787786318 | 22.22° C | 84% | 1016.8 hPa | 0 mm | - | - | - |
| 1787785428 | 22.78° C | 84% | 1016.9 hPa | 0 mm | - | - | - |
| 1787784519 | 22.78° C | 83% | 1016.8 hPa | 0 mm | - | - | - |
| 1787783614 | 22.78° C | 83% | 1016.9 hPa | 0 mm | - | - | - |
| 1787782711 | 23.33° C | 83% | 1017 hPa | 0 mm | - | - | - |
| 1787781821 | 22.78° C | 84% | 1017 hPa | 0 mm | - | - | - |
| 1787780926 | 23.33° C | 84% | 1017 hPa | 0 mm | - | - | - |
| 1787780020 | 23.33° C | 84% | 1016.7 hPa | 0 mm | - | - | - |
| 1787779109 | 23.33° C | 85% | 1016.9 hPa | 0 mm | - | - | - |
| 1787778220 | 23.33° C | 85% | 1016.9 hPa | 0 mm | - | - | - |
| 1787777328 | 23.89° C | 85% | 1016.7 hPa | 0 mm | - | - | - |
| 1787776425 | 23.89° C | 85% | 1016.7 hPa | 0 mm | - | - | - |
| 1787775514 | 24.44° C | 85% | 1016.8 hPa | 0 mm | - | - | - |
| 1787774613 | 24.44° C | 84% | 1016.7 hPa | 0 mm | - | - | - |
| 1787773725 | 24.44° C | 84% | 1016.6 hPa | 0 mm | - | - | - |
| 1787772822 | 24.44° C | 83% | 1016.6 hPa | 0 mm | - | - | - |
* Rain latest hour (hover to see other rain measurements)
** Current wind speed in m/s (hover to see current wind gust speed)